Flag Weather past 2 weeks in Qatif, Saudi Arabia

Now
63 °F

Passing clouds.


Feels Like: 63 °F
Forecast: 67 / 75 °F
Wind: 6 mph from Northwest

Location: King Fahd International Airport

Current Time: Nov 28, 2014 at 6:21:55 AM

Latest Report: Nov 28, 2014 at 6:00 AM


Visibility: 4 mi

Pressure: 30.04 "Hg

Humidity: 77%

Dew point: 55 °F

Location of QatifLocation

Historic Weather in Qatif — Graph

°F

Qatif temperature yesterday

Maximum temperature yesterday: 79 °F (at 1:00 PM)
Minimum temperature yesterday: 61 °F (at 4:00 AM)
Average temperature yesterday: 68 °F

Past Weeks' High & Low Weather Summary

 TemperatureHumidityPressure
High88 °F (Nov 22, 3:00 PM)88% (Nov 24, 2:00 AM)30.15 "Hg (Nov 24, 2:00 AM)
Low55 °F (Nov 13, 6:00 AM)23% (Nov 20, 2:00 PM)29.80 "Hg (Nov 25, 2:00 PM)
Average72 °F60%30.01 "Hg
* Reported Nov 13 5:00 AM — Nov 28 5:00 AM, Qatif, Weather by CustomWeather, © 2014

Note: Actual official high and low records may vary slightly from our data, if they occured in-between our weather recording intervals... More about our weather records

Advertising

Qatif weather history for previous 24 hours

 ConditionsComfort  
Time TempWeatherWind HumidityBarometerVisibility
5:00 AM
Nov 28
63 °FClear.5 mph77%30.01 "Hg4 mi
4:00 AM63 °FClear.5 mph77%30.01 "Hg5 mi
3:00 AM64 °FClear.7 mph73%30.01 "Hg5 mi
2:00 AM64 °FClear.8 mph73%30.01 "Hg5 mi
1:00 AM64 °FClear.9 mph73%30.01 "Hg5 mi
12:00 AM64 °FClear.6 mph73%30.01 "Hg5 mi
11:00 PM
Nov 27
66 °FClear.7 mph68%30.04 "Hg10 mi
10:00 PM66 °FClear.7 mph64%30.04 "Hg10 mi
9:00 PM68 °FClear.5 mph60%30.04 "Hg10 mi
8:00 PM66 °FClear.5 mph60%30.04 "Hg10 mi
7:00 PM70 °FClear.6 mph50%30.04 "Hg10 mi
6:00 PM72 °FPassing clouds.6 mph50%30.01 "HgN/A
5:00 PM73 °FPassing clouds.8 mph47%30.01 "HgN/A
4:00 PM75 °FScattered clouds.12 mph39%30.01 "HgN/A
3:00 PM77 °FScattered clouds.12 mph32%29.98 "HgN/A
2:00 PM77 °FScattered clouds.12 mph28%29.98 "HgN/A
1:00 PM79 °FScattered clouds.10 mph28%29.98 "HgN/A
12:00 PM77 °FSunny.9 mph39%30.01 "Hg10 mi
11:00 AM75 °FSunny.7 mph50%30.04 "Hg10 mi
10:00 AM72 °FSunny.5 mph65%30.07 "Hg10 mi
9:00 AM68 °FSunny.5 mph69%30.07 "Hg10 mi
8:00 AM63 °FPassing clouds.5 mph77%30.07 "Hg5 mi
7:00 AM61 °FPassing clouds.5 mph77%30.04 "Hg5 mi
6:00 AM61 °FFog.7 mph83%30.04 "Hg3 mi
Weather by CustomWeather, © 2014

See weather overviewHow to use our weather pages